Location: ??
(34.9170°N, 135.5016°E)
Time: 17:50:25
(UTC+00:00)

Explorer 11/Cluster Stage 4 - Visible Passes

Search period start: 08 May 2021 00:00
Search period end: 18 May 2021 00:00
Orbit: 467 x 1257 km, 28.8° (Epoch: 07 May)

Date Brightness Start Highest point End Pass type
(mag) Time Alt. Az. Time Alt. Az. Time Alt. Az.
08 May 8.7 11:25:35 10° SSW 11:29:51 19° SSE 11:29:51 19° SSE visible
08 May 8.0 18:45:27 15° SSW 18:45:27 15° SSW 18:47:16 10° S visible
09 May 8.4 11:13:45 10° SSW 11:19:48 23° SSE 11:20:42 22° SE visible
09 May 9.1 13:01:05 10° SW 13:02:54 17° SW 13:02:54 17° SW visible
09 May 8.4 18:35:52 10° S 18:35:52 10° S 18:35:58 10° S visible
10 May 8.4 11:02:03 10° SSW 11:08:31 26° SSE 11:11:24 21° SE visible
10 May 8.5 12:49:38 10° WSW 12:53:35 28° SW 12:53:35 28° SW visible
11 May 8.3 10:50:26 10° SSW 10:57:13 29° SSE 11:01:55 17° ESE visible
11 May 8.0 12:38:14 10° WSW 12:44:05 41° SSW 12:44:05 41° SSW visible
12 May 8.2 10:38:55 10° SW 10:45:55 32° SSE 10:52:12 12° ESE visible
12 May 7.6 12:26:53 10° WSW 12:34:21 50° S 12:34:21 50° S visible
12 May 9.5 14:16:05 10° W 14:16:30 12° W 14:16:30 12° W visible
13 May 8.2 10:27:28 10° SW 10:34:36 35° SSE 10:41:47 10° E visible
13 May 7.5 12:15:33 10° WSW 12:23:32 53° S 12:24:24 51° SSE visible
13 May 9.2 14:04:46 10° W 14:06:33 17° WSW 14:06:33 17° WSW visible
14 May 8.1 10:16:05 10° SW 10:23:17 38° SSE 10:30:40 10° E visible
14 May 7.6 12:04:16 10° WSW 12:12:16 55° S 12:14:16 45° SE visible
14 May 8.9 13:53:29 10° W 13:56:23 23° WSW 13:56:23 23° WSW visible
15 May 7.6 11:53:00 10° WSW 12:00:59 56° S 12:03:57 38° ESE visible
15 May 8.7 13:42:13 10° W 13:46:04 28° WSW 13:46:04 28° WSW visible
16 May 7.6 11:41:47 10° WSW 11:49:42 57° S 11:53:31 32° ESE visible
16 May 8.4 13:30:58 10° W 13:35:37 33° WSW 13:35:37 33° WSW visible
17 May 7.6 11:30:36 10° WSW 11:38:26 57° S 11:42:58 27° ESE visible
17 May 8.3 13:19:45 10° W 13:25:04 36° SW 13:25:04 36° SW visible
